Weather History for Walhalla, ND

Change the Weather History Date:

Monday, January 27, 2014

  Actual Average (KGAF) Record (KGAF)
Temperature  
Mean Temperature -16 °F -  
Max Temperature -9 °F 13 °F 42 °F (1990)
Min Temperature -22 °F -3 °F -31 °F (1950)
Degree Days  
Heating Degree Days 80    
Moisture  
Dew Point -23 °F    
Average Humidity 65    
Maximum Humidity 76    
Minimum Humidity 54    
Precipitation  
Precipitation 0.00 in - - ()
Sea Level Pressure  
Sea Level Pressure 30.35 in    
Wind  
Wind Speed 11 mph (WNW)    
Max Wind Speed 17 mph    
Max Gust Speed 22 mph    
Visibility 10 miles    
Events      
Averages and records for this station are not official NWS values.
T = Trace of Precipitation, MM = Missing Value Source: NWS Daily Summary

Daily Weather History Graph

Daily Weather History Graph

Search for Another Location

Airport:

Trip Planner

Search our weather history database for the weather conditions in past years. The results will help you decide how hot, cold, wet, or windy it might be!

Date:

Astronomy

Jan. 27, 2014 Rise Set
Actual Time 8:08 AM CST 5:21 PM CST
Civil Twilight 7:33 AM CST 5:55 PM CST
Nautical Twilight 6:55 AM CST 6:34 PM CST
Astronomical Twilight 6:18 AM CST 7:11 PM CST
Moon 4:54 AM CST (1/27) 2:04 PM CST (1/27)
Length of Visible Light 10h 21m
Length of Day
9h 12m
Waning Crescent, 14% of the Moon is Illuminated
Jan 27
Waning Crescent
Jan 30
New
Feb 6
First Quarter
Feb 14
Full
Feb 22
Last Quarter

Hourly Weather History & Observations

Time (CST) Temp. Windchill Dew Point Humidity Pressure Visibility Wind Dir Wind Speed Gust Speed Precip Events Conditions
12:15 AM -13.0 °F -36.8 °F -20.2 °F 70% 30.31 in 10.0 mi NNW 16.1 mph 20.7 mph N/A   Scattered Clouds
12:35 AM -13.0 °F -35.2 °F -22.0 °F 64% 30.31 in 10.0 mi NNW 13.8 mph 20.7 mph N/A   Partly Cloudy
12:55 AM -13.0 °F -36.0 °F -22.0 °F 64% 30.31 in 10.0 mi NNW 15.0 mph 20.7 mph N/A   Partly Cloudy
1:15 AM -14.8 °F -38.3 °F -22.0 °F 70% 30.31 in 10.0 mi NNW 15.0 mph 21.9 mph N/A   Clear
1:35 AM -14.8 °F -38.3 °F -22.0 °F 70% 30.32 in 10.0 mi NNW 15.0 mph 20.7 mph N/A   Clear
1:55 AM -14.8 °F -36.6 °F -22.0 °F 70% 30.32 in 10.0 mi NNW 12.7 mph 20.7 mph N/A   Clear
2:15 AM -16.6 °F -40.6 °F -22.0 °F 76% 30.32 in 8.0 mi NNW 15.0 mph 18.4 mph N/A   Partly Cloudy
2:35 AM -16.6 °F -39.8 °F -22.0 °F 76% 30.32 in 10.0 mi NNW 13.8 mph - N/A   Partly Cloudy
2:55 AM -16.6 °F -42.1 °F -23.8 °F 70% 30.33 in 10.0 mi NNW 17.3 mph 21.9 mph N/A   Mostly Cloudy
3:15 AM -16.6 °F -41.4 °F -23.8 °F 70% 30.34 in 10.0 mi NNW 16.1 mph - N/A   Mostly Cloudy
3:35 AM -16.6 °F -42.1 °F -23.8 °F 70% 30.34 in 10.0 mi NW 17.3 mph 20.7 mph N/A   Partly Cloudy
3:55 AM -16.6 °F -40.6 °F -23.8 °F 70% 30.34 in 10.0 mi NNW 15.0 mph - N/A   Clear
4:15 AM -16.6 °F -36.8 °F -25.6 °F 64% 30.35 in 10.0 mi NW 10.4 mph - N/A   Clear
4:35 AM -18.4 °F -41.2 °F -25.6 °F 70% 30.36 in 10.0 mi NW 12.7 mph - N/A   Clear
4:55 AM -18.4 °F -40.2 °F -25.6 °F 70% 30.36 in 10.0 mi NW 11.5 mph - N/A   Clear
5:15 AM -18.4 °F -41.2 °F -25.6 °F 70% 30.37 in 10.0 mi NW 12.7 mph - N/A   Partly Cloudy
5:35 AM -18.4 °F -37.9 °F -25.6 °F 70% 30.37 in 10.0 mi NW 9.2 mph - N/A   Partly Cloudy
5:55 AM -18.4 °F -37.9 °F -25.6 °F 70% 30.37 in 10.0 mi NW 9.2 mph - N/A   Mostly Cloudy
6:15 AM -18.4 °F -41.2 °F -25.6 °F 70% 30.37 in 9.0 mi NW 12.7 mph - N/A   Scattered Clouds
6:35 AM -18.4 °F -36.6 °F -25.6 °F 70% 30.37 in 10.0 mi NW 8.1 mph - N/A   Mostly Cloudy
6:55 AM -18.4 °F -35.1 °F -25.6 °F 70% 30.37 in 10.0 mi NW 6.9 mph - N/A   Mostly Cloudy
7:15 AM -20.2 °F -37.3 °F -27.4 °F 69% 30.37 in 10.0 mi West 6.9 mph - N/A   Mostly Cloudy
7:35 AM -20.2 °F -38.8 °F -27.4 °F 69% 30.38 in - West 8.1 mph - N/A   Mostly Cloudy
7:55 AM -20.2 °F -35.5 °F -27.4 °F 69% 30.38 in - West 5.8 mph - N/A   Partly Cloudy
8:15 AM -22.0 °F -39.4 °F -29.2 °F 69% 30.38 in - West 6.9 mph - N/A   Mostly Cloudy
8:35 AM -22.0 °F -37.7 °F -29.2 °F 69% 30.39 in - West 5.8 mph - N/A   Partly Cloudy
8:55 AM -20.2 °F -37.3 °F -27.4 °F 69% 30.40 in - West 6.9 mph - N/A   Partly Cloudy
9:15 AM -20.2 °F -40.1 °F -29.2 °F 63% 30.40 in - West 9.2 mph - N/A   Clear
9:35 AM -18.4 °F -36.6 °F -27.4 °F 63% 30.40 in 10.0 mi WNW 8.1 mph - N/A   Clear
9:55 AM -18.4 °F -33.4 °F -27.4 °F 63% 30.40 in 10.0 mi West 5.8 mph - N/A   Partly Cloudy
10:15 AM -16.6 °F -32.9 °F -25.6 °F 64% 30.40 in 10.0 mi WNW 6.9 mph - N/A   Clear
10:35 AM -16.6 °F -32.9 °F -25.6 °F 64% 30.40 in 10.0 mi NW 6.9 mph - N/A   Clear
10:55 AM -13.0 °F -30.0 °F -22.0 °F 64% 30.40 in 10.0 mi NW 8.1 mph - N/A   Clear
11:15 AM -13.0 °F -32.4 °F -22.0 °F 64% 30.40 in 10.0 mi WNW 10.4 mph - N/A   Clear
11:35 AM -11.2 °F -29.0 °F -22.0 °F 59% 30.40 in 10.0 mi WNW 9.2 mph - N/A   Clear
11:55 AM -11.2 °F -29.0 °F -22.0 °F 59% 30.40 in 10.0 mi WNW 9.2 mph - N/A   Clear
12:15 PM -9.4 °F -24.3 °F -22.0 °F 54% 30.39 in 10.0 mi West 6.9 mph - N/A   Clear
12:35 PM -9.4 °F -25.6 °F -20.2 °F 59% 30.39 in 10.0 mi WNW 8.1 mph - N/A   Clear
12:55 PM -9.4 °F -24.3 °F -20.2 °F 59% 30.38 in 10.0 mi WNW 6.9 mph - N/A   Clear
1:15 PM -9.4 °F -20.9 °F -20.2 °F 59% 30.37 in 10.0 mi WNW 4.6 mph - N/A   Clear
1:35 PM -9.4 °F -25.6 °F -20.2 °F 59% 30.37 in 10.0 mi West 8.1 mph - N/A   Clear
1:55 PM -9.4 °F -24.3 °F -20.2 °F 59% 30.36 in 10.0 mi WNW 6.9 mph - N/A   Clear
2:15 PM -9.4 °F -26.8 °F -20.2 °F 59% 30.36 in 10.0 mi WNW 9.2 mph - N/A   Clear
2:35 PM -9.4 °F -25.6 °F -20.2 °F 59% 30.35 in 10.0 mi WNW 8.1 mph - N/A   Clear
2:55 PM -9.4 °F -24.3 °F -20.2 °F 59% 30.35 in 10.0 mi WNW 6.9 mph - N/A   Clear
3:15 PM -9.4 °F -24.3 °F -20.2 °F 59% 30.35 in 10.0 mi West 6.9 mph - N/A   Clear
3:35 PM -9.4 °F -26.8 °F -20.2 °F 59% 30.35 in 10.0 mi West 9.2 mph - N/A   Clear
3:55 PM -9.4 °F -25.6 °F -20.2 °F 59% 30.35 in 10.0 mi West 8.1 mph - N/A   Clear
4:15 PM -9.4 °F -25.6 °F -20.2 °F 59% 30.36 in 10.0 mi West 8.1 mph - N/A   Clear
4:35 PM -9.4 °F -25.6 °F -20.2 °F 59% 30.36 in 10.0 mi WNW 8.1 mph - N/A   Clear
4:55 PM -9.4 °F -25.6 °F -20.2 °F 59% 30.36 in 10.0 mi WNW 8.1 mph - N/A   Clear
5:15 PM -11.2 °F -29.0 °F -20.2 °F 64% 30.36 in 10.0 mi WNW 9.2 mph - N/A   Clear
5:35 PM -11.2 °F -27.8 °F -22.0 °F 59% 30.35 in 10.0 mi WNW 8.1 mph - N/A   Clear
5:55 PM -11.2 °F -29.0 °F -22.0 °F 59% 30.35 in 10.0 mi WNW 9.2 mph - N/A   Partly Cloudy
6:15 PM - - - N/A% 30.35 in 10.0 mi WNW 9.2 mph - N/A   Mostly Cloudy
6:35 PM -11.2 °F -27.8 °F -22.0 °F 59% 30.36 in 10.0 mi WNW 8.1 mph - N/A   Scattered Clouds
6:55 PM - - - N/A% 30.35 in 10.0 mi WNW 8.1 mph - N/A   Partly Cloudy
7:15 PM -13.0 °F -31.3 °F -22.0 °F 64% 30.35 in 10.0 mi WNW 9.2 mph - N/A   Scattered Clouds
7:35 PM -13.0 °F -30.0 °F -22.0 °F 64% 30.35 in 10.0 mi WNW 8.1 mph - N/A   Partly Cloudy
7:55 PM -13.0 °F -32.4 °F -22.0 °F 64% 30.35 in 10.0 mi WNW 10.4 mph 17.3 mph N/A   Clear
8:15 PM -13.0 °F -32.4 °F -22.0 °F 64% 30.34 in 10.0 mi WNW 10.4 mph - N/A   Clear
8:35 PM -13.0 °F -33.4 °F -22.0 °F 64% 30.34 in 10.0 mi WNW 11.5 mph 17.3 mph N/A   Clear
8:55 PM -13.0 °F -32.4 °F -22.0 °F 64% 30.33 in 10.0 mi West 10.4 mph - N/A   Clear
9:15 PM -13.0 °F -34.3 °F -22.0 °F 64% 30.33 in 10.0 mi WNW 12.7 mph 18.4 mph N/A   Clear
9:35 PM -13.0 °F -34.3 °F -22.0 °F 64% 30.33 in 10.0 mi WNW 12.7 mph 19.6 mph N/A   Clear
9:55 PM -13.0 °F -33.4 °F -22.0 °F 64% 30.32 in 10.0 mi West 11.5 mph 19.6 mph N/A   Clear
10:15 PM -13.0 °F -32.4 °F -22.0 °F 64% 30.32 in 10.0 mi WNW 10.4 mph - N/A   Clear
10:35 PM -13.0 °F -31.3 °F -22.0 °F 64% 30.32 in 10.0 mi WNW 9.2 mph - N/A   Clear
10:55 PM -13.0 °F -28.6 °F -22.0 °F 64% 30.31 in 10.0 mi West 6.9 mph - N/A   Clear
11:15 PM -14.8 °F -30.8 °F -22.0 °F 70% 30.31 in 10.0 mi WNW 6.9 mph - N/A   Clear
11:35 PM -13.0 °F -30.0 °F -22.0 °F 64% 30.31 in 10.0 mi WNW 8.1 mph - N/A   Clear
11:55 PM -13.0 °F -30.0 °F -22.0 °F 64% 30.31 in 10.0 mi West 8.1 mph 16.1 mph N/A   Clear